Weather History for West Palm Beach, FL

Change the Weather History Date:

Saturday, November 27, 2010

  Actual Average Record
Temperature  
Mean Temperature 75 °F 71 °F  
Max Temperature 85 °F 79 °F 89 °F (1948)
Min Temperature 65 °F 64 °F 40 °F (1949)
Degree Days  
Heating Degree Days 0 1  
Month to date heating degree days 9 6  
Since 1 July heating degree days 9 7  
Cooling Degree Days 10 7  
Month to date cooling degree days 224 225  
Year to date cooling degree days 3992 3846  
Growing Degree Days 25 (Base 50)    
Moisture  
Dew Point 68 °F    
Average Humidity 76    
Maximum Humidity 97    
Minimum Humidity 55    
Precipitation  
Precipitation T in 0.13 in 1.43 in (1897)
Month to date precipitation 1.20 4.35  
Year to date precipitation 51.91 58.55  
Snow  
Snow 0.00 in - - ()
Month to date snowfall 0.0  
Since 1 July snowfall 0.0  
Since 1 September snowfall 0.0  
Snow Depth 0.00 in    
Sea Level Pressure  
Sea Level Pressure 29.98 in    
Wind  
Wind Speed 6 mph (WNW)    
Max Wind Speed 17 mph    
Max Gust Speed 21 mph    
Visibility 10 miles    
Events      
T = Trace of Precipitation, MM = Missing Value Source: NWS Daily Summary

Daily Weather History Graph

Daily Weather History Graph

Search for Another Location

Airport:

Trip Planner

Search our weather history database for the weather conditions in past years. The results will help you decide how hot, cold, wet, or windy it might be!

Date:

Astronomy

Nov. 27, 2010 Rise Set
Actual Time 6:48 AM EST 5:27 PM EST
Civil Twilight 6:23 AM EST 5:52 PM EST
Nautical Twilight 5:55 AM EST 6:20 PM EST
Astronomical Twilight 5:27 AM EST 6:48 PM EST
Moon 11:27 PM EST (11/27) 11:41 AM EST (11/27)
Length of Visible Light 11h 28m
Length of Day
10h 38m
Waning Gibbous, 63% of the Moon is Illuminated
Nov 27
Waning Gibbous
Nov 28
Last Quarter
Dec 5
New
Dec 13
First Quarter
Dec 21
Full

Hourly Weather History & Observations

Time (EST) Temp. Heat Index Dew Point Humidity Pressure Visibility Wind Dir Wind Speed Gust Speed Precip Events Conditions
12:53 AM 71.1 °F - 66.0 °F 84% 29.97 in 10.0 mi Calm Calm - N/A   Mostly Cloudy
1:53 AM 69.1 °F - 66.0 °F 90% 29.96 in 10.0 mi West 3.5 mph - N/A   Mostly Cloudy
2:53 AM 68.0 °F - 66.0 °F 93% 29.95 in 10.0 mi SW 3.5 mph - N/A   Clear
3:53 AM 69.1 °F - 66.0 °F 90% 29.95 in 10.0 mi South 3.5 mph - N/A   Mostly Cloudy
4:53 AM 66.9 °F - 64.9 °F 93% 29.95 in 10.0 mi SSW 3.5 mph - N/A   Scattered Clouds
5:53 AM 66.9 °F - 64.9 °F 93% 29.96 in 8.0 mi Calm Calm - N/A   Partly Cloudy
6:53 AM 66.9 °F - 64.9 °F 93% 29.97 in 10.0 mi Calm Calm - N/A   Scattered Clouds
7:53 AM 69.1 °F - 68.0 °F 96% 29.99 in 8.0 mi SW 5.8 mph - N/A   Scattered Clouds
8:19 AM 71.6 °F - 69.8 °F 94% 30.00 in 10.0 mi WSW 5.8 mph - N/A   Mostly Cloudy
8:53 AM 73.9 °F - 70.0 °F 87% 30.01 in 10.0 mi West 5.8 mph - N/A   Mostly Cloudy
9:53 AM 75.9 °F - 70.0 °F 82% 30.01 in 10.0 mi West 8.1 mph - N/A   Mostly Cloudy
10:53 AM 78.1 °F - 70.0 °F 76% 30.01 in 10.0 mi WSW 8.1 mph - N/A   Mostly Cloudy
11:53 AM 81.0 °F 83.8 °F 68.0 °F 65% 29.99 in 10.0 mi West 9.2 mph - N/A   Mostly Cloudy
12:30 PM 80.6 °F 83.2 °F 68.0 °F 65% 29.98 in 10.0 mi WNW 4.6 mph - N/A   Mostly Cloudy
12:53 PM 82.9 °F 86.5 °F 69.1 °F 63% 29.97 in 10.0 mi NW 8.1 mph - N/A   Mostly Cloudy
1:53 PM 84.0 °F 86.5 °F 66.9 °F 56% 29.95 in 10.0 mi North 3.5 mph - N/A   Mostly Cloudy
2:53 PM 80.1 °F 83.2 °F 70.0 °F 71% 29.94 in 10.0 mi East 5.8 mph - N/A   Scattered Clouds
3:53 PM 81.0 °F 84.4 °F 70.0 °F 69% 29.94 in 10.0 mi SE 9.2 mph - N/A   Scattered Clouds
4:53 PM 78.1 °F - 71.1 °F 79% 29.96 in 10.0 mi SE 6.9 mph - N/A   Mostly Cloudy
5:53 PM 75.9 °F - 66.9 °F 74% 29.97 in 10.0 mi NNE 13.8 mph - N/A   Mostly Cloudy
6:53 PM 73.9 °F - 68.0 °F 82% 30.00 in 10.0 mi North 8.1 mph - 0.00 in   Mostly Cloudy
7:53 PM 73.9 °F - 68.0 °F 82% 30.01 in 10.0 mi North 5.8 mph - N/A   Mostly Cloudy
8:53 PM 73.0 °F - 68.0 °F 84% 30.02 in 10.0 mi NNW 6.9 mph - 0.00 in   Mostly Cloudy
9:53 PM 73.0 °F - 68.0 °F 84% 30.02 in 10.0 mi North 5.8 mph - N/A   Mostly Cloudy
10:53 PM 72.0 °F - 66.9 °F 84% 30.02 in 10.0 mi North 6.9 mph - N/A   Mostly Cloudy
11:53 PM 72.0 °F - 66.9 °F 84% 30.02 in 10.0 mi Calm Calm - N/A   Mostly Cloudy